sat.trackr.live / text

‹ back to catalog

STARLINK-34331

NORAD 64204 · 2025-117B

PAYLOAD ACTIVE UNKNOWN

§ Identity

Operator
Country
US
Launch date
2025-05-31
Launch site
AFWTR
Launch vehicle
Mass (kg)
RCS (m²)

Purposes: comms

External: N2YO · Heavens-Above · Gunter

§ Orbital elements

Epoch: 2026-05-25T02:41:29.639904Z

Period
94.11 min
Inclination
53.1622°
Eccentricity
0.0001206
Mean motion
15.30203965 rev/d
Perigee alt
474.4 km
Apogee alt
476.0 km
Semi-major
6,853.3 km
B*
4.7974e-4
RAAN
44.8175°
Arg perigee
97.6674°
Mean anomaly
262.4464°
Rev number
5,622

§ Raw data

STARLINK-343311 64204U 25117B   26145.11214861  .00013878  00000+0  47974-3 0  99942 64204  53.1622  44.8175 0001206  97.6674 262.4464 15.30203965 56221

JSON: /api/v1/satellites/64204 · /tle

For live sub-satellite position, see the globe view (requires WebGL).

§ Visibility from observer

Set your observer location to see the next 7 days of passes ≥ 10°. The values pass through the URL so the page stays shareable.

No JS? Fill the form by hand. The geolocation button needs JavaScript.